ATLAS 5 CENTAUR DEB, 43975

Orbit data source: Space-Track

ATLAS 5 CENTAUR DEB, 43975 is space debris in HEO originally from a launch on Wed, 17 Sep 2014 UTC launched from the Air Force Eastern Test Range (AFETR). Debris objects in space refer to the collection of defunct objects orbiting the Earth. Examples of debris include non-operational satellites, rocket bodies, and fragments generated from explosions, collisions, or faulty payload assembly.

Loading next visibility...
Identifier
43975, 2014-055AE
Orbit
HEO
Last TLE update
4 days ago
Origin
Flag of USUnited Launch Alliance/Lockheed Martin (US)
Manufacturer
Unknown
Mission
Spacecraft
Bus & Motor
Unknown
Mass
Unknown
Launch date (UTC)
2014-09-17 (11 years ago)
Launch vehicle
Unknown
Launch site
Air Force Eastern Test Range (AFETR)
Object type
Payload
Rocket body
Debris
Shape & HBR
Unknown
Radar Cross Section
Small (<0.1 m²)

Expand to show TLE details & history

TLE from 4 days ago
0 ATLAS 5 CENTAUR DEB
1 43975U 14055AE  25182.97970966 -.00000003  00000-0  00000-0 0  9998
2 43975  20.6570 133.7858 5016441 183.6636 170.4981  1.93210236 48211
Epoch: 2025-07-01T23:30Z
TLE epoch observation values (Epoch: 2025-07-01T23:30:46.914Z)
Latitude
0.00001°
Longitude
-139.21011°
Altitude
34,437.227 km
Speed
2.212 km/s
True Right ascension
08h 55m 00s
True Declination
0° 00' 00"
Sunlit
Object was in daylight at epoch
Visualization orbit readout
Latitude
-18.93069°
Longitude
155.093°
Altitude
17,968.296 km
Speed
4.255 km/s
Apparent Right ascension
03h 44m 30s
Apparent Declination
-26° 46' 53"
Sunlit
Object is in daylight
Visualization observer readout
Local Sidereal Time
10:39:00
Azimuth
256.354° W
Elevation
-26.772°
Doppler factor
1
Orbital elements
Apogee altitude
34,514.782 km
Perigee altitude
7,193.14 km
Semi-major axis
27,232.098 km
Eccentricity
0.50164
Inclination
20.657°
RAAN
133.7858°
Arg. of periapsis
183.6636°
True anomaly
Unknown
Mean anomaly
170.4981°
Eccentric anomaly
Unknown
Mean motion
0.48297 °/min
Orbital period
745.39 mins
BSTAR
0
Loading maneuver chart data...
Loading SW <> Apogee altitude chart data...
Loading historical data...
Loading historical data...
Loading historical data...
Loading historical data...
Loading historical data...
Loading historical data...
Loading historical data...

ATLAS 5 CENTAUR DEB Visibility forecast

Observer location: undefined°, undefined°

Span
Click to sort rows by Start time (UTC) header in descending order
Start Az.
Max El. time (UTC)
Max El. Az.
Max El.
End time (UTC)
End Az.
77 mins2025-07-06 08:24:46.670Z271.939° WNW2025-07-06 09:10:46.670Z216.73° SW24.748°2025-07-06 09:41:46.670Z157.32° SSE
|